Home   Weather   Newcastle upon Tyne   Past weeks
Flag for United Kingdom

Past Weather in Newcastle upon Tyne, England, United Kingdom — Yesterday and Last 2 Weeks

Now
57 °F

Passing clouds.


Feels Like: 55 °F
Forecast: 65 / 53 °F
Wind: 10 mph from West

Location: Newcastle

Current Time: Jul 18, 2019 at 8:47:21 am

Latest Report: Jul 18, 2019 at 7:50 am


Visibility: N/A

Pressure: 29.68 "Hg

Humidity: 88%

Dew Point: 54 °F

Location of Newcastle upon TyneLocation

Past Weather in Newcastle upon Tyne — Graph

°F

Newcastle upon Tyne Temperature Yesterday

Maximum temperature yesterday: 70 °F (at 11:20 am)
Minimum temperature yesterday: 54 °F (at 3:20 am)
Average temperature yesterday: 61 °F

High & Low Weather Summary for the Past Weeks

 TemperatureHumidityPressure
High73 °F (Jul 16, 2:50 pm)100% (Jul 4, 1:50 am)30.36 "Hg (Jul 4, 1:50 am)
Low39 °F (Jul 8, 3:50 am)46% (Jul 3, 2:20 pm)29.65 "Hg (Jul 18, 2:50 am)
Average59 °F85%30.05 "Hg
* Reported Jul 3 7:20 am — Jul 18 7:20 am, Newcastle upon Tyne. Weather by CustomWeather, © 2019

Note: Actual official high and low records may vary slightly from our data, if they occured in-between our weather recording intervals... More about our weather records

Advertising

Newcastle upon Tyne Weather History for the Previous 24 Hours

Scroll right to see more
 ConditionsComfort  
Time TempWeatherWind HumidityBarometerVisibility
7:20 am
Thu, Jul 18
57 °FPassing clouds.9 mph88%29.68 "HgN/A
6:50 am55 °FPassing clouds.13 mph94%29.68 "HgN/A
6:20 am54 °FPassing clouds.13 mph94%29.68 "HgN/A
5:50 am55 °FPassing clouds.10 mph94%29.68 "HgN/A
5:20 am54 °FPassing clouds.13 mph100%29.68 "HgN/A
4:50 am55 °FPassing clouds.8 mph94%29.65 "HgN/A
4:20 am57 °FPassing clouds.8 mph94%29.65 "HgN/A
3:50 am57 °FPassing clouds.12 mph100%29.65 "HgN/A
2:50 am57 °FPassing clouds.3 mph100%29.65 "HgN/A
2:20 am57 °FPassing clouds.6 mph100%29.68 "HgN/A
1:50 am57 °FPassing clouds.6 mph100%29.68 "HgN/A
1:20 am57 °FPassing clouds.6 mph100%29.68 "HgN/A
12:50 am57 °FPassing clouds.8 mph100%29.68 "HgN/A
12:20 am57 °FPassing clouds.3 mph100%29.71 "HgN/A
11:50 pm
Wed, Jul 17
57 °FPassing clouds.3 mph100%29.71 "HgN/A
11:20 pm57 °FPassing clouds.5 mph100%29.71 "HgN/A
10:50 pm57 °FPassing clouds.6 mph100%29.71 "HgN/A
10:20 pm57 °FScattered showers. Passing clouds.3 mph100%29.74 "HgN/A
9:50 pm57 °FScattered showers. Passing clouds.6 mph100%29.74 "HgN/A
9:20 pm57 °FLight rain. Passing clouds.6 mph100%29.74 "HgN/A
8:50 pm57 °FLight rain. Passing clouds.7 mph100%29.74 "Hg5 mi
8:20 pm59 °FLight rain. Passing clouds.6 mph94%29.77 "HgN/A
7:50 pm59 °FLight rain. Passing clouds.5 mph94%29.77 "Hg6 mi
7:20 pm59 °FLight rain. Passing clouds.8 mph94%29.77 "Hg6 mi
6:50 pm59 °FLight rain. Passing clouds.8 mph94%29.77 "Hg6 mi
6:20 pm61 °FLight rain. Passing clouds.10 mph83%29.80 "Hg6 mi
5:50 pm63 °FPassing clouds.10 mph77%29.80 "HgN/A
5:20 pm63 °FPassing clouds.12 mph77%29.80 "HgN/A
4:50 pm64 °FLight rain. Passing clouds.9 mph73%29.80 "HgN/A
4:20 pm64 °FPassing clouds.12 mph73%29.80 "HgN/A
3:50 pm66 °FLight rain. Passing clouds.13 mph60%29.80 "HgN/A
2:50 pm68 °FPassing clouds.12 mph64%29.80 "HgN/A
2:20 pm68 °FPassing clouds.13 mph64%29.83 "HgN/A
1:50 pm70 °FPassing clouds.14 mph57%29.83 "HgN/A
1:20 pm70 °FPassing clouds.12 mph57%29.83 "HgN/A
12:50 pm68 °FPassing clouds.9 mph60%29.83 "HgN/A
12:20 pm70 °FPassing clouds.12 mph57%29.86 "HgN/A
11:50 am68 °FPassing clouds.12 mph60%29.86 "HgN/A
11:20 am70 °FPassing clouds.9 mph57%29.86 "HgN/A
10:50 am68 °FPassing clouds.10 mph60%29.86 "HgN/A
10:20 am68 °FPassing clouds.13 mph60%29.86 "HgN/A
9:50 am68 °FPassing clouds.10 mph60%29.89 "HgN/A
9:20 am66 °FPassing clouds.7 mph68%29.89 "HgN/A
8:50 am66 °FPassing clouds.5 mph64%29.89 "HgN/A
8:20 am64 °FSunny.2 mph73%29.89 "Hg10 mi
Weather by CustomWeather, © 2019

See weather overview